Weather observations for the past three days for
Fort Dodge
Imperial (Metric)
Date Time (cdt) Wind (mph) Vis. (mi.) Weather Sky Cond. Temperature (ºF) Relative Humidity Wind Chill (°F) Heat Index (°F) Pressure Precipitation (in)
Air Dwpt 6 hour altimeter (in) sea level (mb) 1 hr 3 hr 6 hr
Max. Min.
04 11:56 W 6 10.00 A Few Clouds FEW110 87.1 73.9 65% 95 29.91 1012.7
04 10:56 W 7 10.00 Fair CLR 86 73 65% 93 29.9 1012.5
04 09:56 W 9 10.00 Fair CLR 82.9 72 70% 88 29.89 1012.5
04 08:56 SW 7 10.00 Fair CLR 79 71.1 77% 82 29.89 1012.3
04 07:56 Calm 10.00 Fair CLR 75 70 84% 75 29.88 1012.2
04 06:56 SW 5 10.00 Fair CLR 72 69.1 79 72 91% 29.87 1011.8
04 05:56 SW 6 10.00 Mostly Cloudy BKN100 73.9 69.1 85% 29.86 1011.4
04 04:56 SW 7 10.00 Mostly Cloudy BKN095 73.9 70 88% 29.86 1011.4
04 03:56 Calm 10.00 Partly Cloudy SCT090 SCT110 73 71.1 94% 29.86 1011.4
04 02:56 S 3 10.00 Mostly Cloudy BKN085 75 70 84% 75 29.86 1011.3
04 01:56 E 3 10.00 Fair CLR 73.9 71.1 91% 29.86 1011.6
04 00:56 S 5 10.00 Fair CLR 79 70 87.1 79 74% 82 29.86 1011.4
03 23:56 S 9 10.00 Fair CLR 80.1 70 71% 83 29.85 1011.0
03 22:56 S 8 10.00 Fair CLR 80.1 71.1 74% 84 29.85 1011.1
03 21:56 S 7 10.00 Fair CLR 81 71.1 72% 85 29.85 1011.1
03 20:56 S 7 10.00 Fair CLR 82 73 74% 87 29.84 1010.7
03 19:56 S 6 10.00 Fair CLR 84 73.9 72% 91 29.82 1010.1
03 18:56 S 6 10.00 Fair CLR 86 75.9 88 73.9 72% 96 29.82 1009.9
03 17:56 S 9 G 17 10.00 Fair CLR 88 75.9 68% 99 29.81 1009.6
03 16:56 S 12 G 22 10.00 Partly Cloudy SCT110 88 75 66% 98 29.82 1010.0
03 15:56 S 14 G 20 10.00 Mostly Cloudy BKN120 86 75 70% 95 29.83 1010.2
03 14:56 S 13 G 20 10.00 Fair CLR 82.9 73 72% 89 29.82 1010.2
03 13:56 S 12 G 17 10.00 Thunderstorm in Vicinity FEW027 78.1 73.9 87% 81 29.85 1011.0
03 12:56 S 9 10.00 Thunderstorm Rain FEW060 OVC095 73.9 72 75 72 94% 29.89 1012.5 0.1 0.45
03 11:56 SE 10 3.00 Thunderstorm Light Rain Fog/Mist FEW035 SCT050 OVC100 73 73 100% 29.91 1013.3 0.11
03 10:56 SE 12 10.00 Light Rain FEW070 BKN100 73 71.1 94% 29.91 1013.2 0.02
03 09:56 E 9 10.00 Light Rain FEW070 OVC110 72 71.1 97% 29.92 1013.7 0.17 0.22
03 08:56 E 6 8.00 Thunderstorm Light Rain FEW021 BKN080 OVC110 73 70 90% 29.95 1014.5 0.03
03 07:56 SE 5 10.00 Light Rain OVC110 73 71.1 94% 29.9 1012.9 0.02
03 06:56 Calm 7.00 Light Rain FEW055 SCT085 BKN110 73 72 78.1 72 96% 29.92 1013.4 0.01 0.02
03 05:56 Calm 10.00 Light Rain FEW050 BKN100 BKN120 73 72 96% 29.9 1012.8 0.01
03 04:56 NE 5 10.00 Thunderstorm in Vicinity OVC110 75.9 70 82% 77 29.9 1012.5
03 03:56 Vrbl 3 10.00 Thunderstorm in Vicinity FEW120 73.9 72 94% 29.86 1011.5
03 01:56 N 3 10.00 Fair CLR 75.9 70 82% 77 29.86 1011.3
03 00:56 SW 6 10.00 Fair CLR 78.1 71.1 84.9 75 79% 80 29.86 1011.3
02 23:56 Calm 10.00 Fair CLR 77 72 85% 78 29.86 1011.4
02 22:56 S 3 10.00 Fair CLR 79 73 82% 82 29.86 1011.3
02 21:56 Calm 10.00 Fair CLR 77 75 94% 78 29.86 1011.5
02 20:56 E 5 10.00 Fair CLR 79 75.9 90% 83 29.85 1011.2
02 19:56 E 5 10.00 Fair CLR 80.1 75.9 87% 85 29.84 1010.9
02 18:56 SE 5 10.00 Fair CLR 84.9 75 89.1 82.9 72% 93 29.85 1011.0
02 17:56 S 3 10.00 Fair CLR 88 73.9 63% 97 29.86 1011.3
02 16:56 S 7 10.00 Fair CLR 88 73 61% 96 29.86 1011.2
02 15:56 S 10 10.00 Fair CLR 88 73 61% 96 29.87 1011.6
02 14:56 S 5 10.00 A Few Clouds FEW120 87.1 73.9 65% 95 29.89 1012.3
02 13:56 SE 7 10.00 Fair CLR 84.9 71.1 63% 90 29.91 1012.9
02 12:56 SE 10 G 17 10.00 Partly Cloudy SCT120 84 69.1 84.9 69.1 61% 88 29.91 1013.0
02 11:56 SE 8 10.00 Mostly Cloudy FEW070 BKN110 81 69.1 67% 84 29.93 1013.6
02 10:56 Calm 10.00 Partly Cloudy SCT110 77 70 79% 79 29.95 1014.6
02 09:56 NW 3 10.00 Thunderstorm in Vicinity OVC110 75.9 69.1 79% 77 29.95 1014.7
02 08:56 S 6 10.00 Fair CLR 75 66.9 76% 76 29.92 1013.6
02 07:56 E 5 10.00 Mostly Cloudy BKN110 71.1 66.9 87% 29.94 1014.4
02 06:56 Calm 10.00 A Few Clouds FEW110 69.1 66 75.9 69.1 90% 29.94 1014.3
02 05:56 Calm 10.00 Partly Cloudy SCT120 69.1 64.9 87% 29.95 1014.4
02 04:56 E 6 10.00 Mostly Cloudy BKN110 69.1 64 84% 29.95 1014.6
02 03:56 NE 7 10.00 Mostly Cloudy BKN100 72 62.1 71% 29.97 1015.0
02 02:56 W 12 5.00 Fog/Mist CLR 73 72 96% 29.96 1014.7
02 01:56 SW 6 10.00 Partly Cloudy SCT085 75 70 84% 75 29.92 1013.2
02 00:56 SW 5 10.00 Partly Cloudy SCT080 75.9 70 88 75.9 82% 77 29.87 1011.8
01 23:56 SW 8 10.00 Fair CLR 79 70 74% 82 29.88 1012.0
01 22:56 S 6 10.00 Fair CLR 81 73.9 79% 86 29.89 1012.2
01 21:56 SE 5 10.00 Mostly Cloudy BKN120 78.1 75 90% 81 29.9 1012.5
01 20:56 E 6 10.00 Fair CLR 78.1 75 90% 81 29.89 1012.3
01 19:56 E 8 10.00 Fair CLR 80.1 75 85% 85 29.87 1012.0
01 18:56 Calm 10.00 A Few Clouds FEW110 88 73.9 91 88 63% 97 29.89 1012.3
01 17:56 S 7 10.00 Fair CLR 89.1 73 59% 97 29.9 1012.6
01 16:56 SE 9 10.00 Fair CLR 90 73 58% 98 29.9 1012.5
01 15:56 SE 9 10.00 Fair CLR 90 75.9 63% 102 29.91 1012.9
01 14:56 SE 9 10.00 A Few Clouds FEW110 91 78.1 66% 106 29.92 1013.4
01 13:56 E 12 10.00 Partly Cloudy SCT110 90 75.9 63% 102 29.94 1014.0
01 12:56 E 7 10.00 Fair CLR 88 77 88 71.1 70% 100 29.96 1014.7
Date Time (cdt) Wind (mph) Vis. (mi.) Weather Sky Cond. Air Dwpt Max. Min. Relative Humidity Wind Chill (°F) Heat Index (°F) altimeter (in) sea level (mb) 1 hr 3 hr 6 hr
6 hour
Temperature (ºF) Pressure Precipitation (in)